Regional Weather Roundup
Issued by NWS

Home | Current Version | Previous Version | Graphics & Text | Print | Product List | Glossary Off
Versions: 1 2 3 4 5 6 7 8 9 10 11 12 13 14 15 16 17 18 19 20 21 22 23 24 25 26 27 28 29 30 31 32 33 34 35 36 37 38 39 40 41 42 43 44 45 46 47 48 49 50

000
ASUS43 KMKX 221800
RWRWI

WISCONSIN REGIONAL WEATHER ROUNDUP
NATIONAL WEATHER SERVICE MILWAUKEE/SULLIVAN WI
100 PM CDT WED OCT 22 2014

NOTE: "FAIR" INDICATES FEW OR NO CLOUDS BELOW 12,000 FEET WITH NO
SIGNIFICANT WEATHER AND/OR OBSTRUCTIONS TO VISIBILITY.

WIZ001-002-006>008-014>016-023>028-221900-
NORTHWEST WISCONSIN

CITY           SKY/WX    TMP DP  RH WIND       PRES   REMARKS
SUPERIOR ARPT  FAIR      58  40  51 S14       30.16F
ASHLAND        FAIR      56  36  47 S9        30.21F
6HR MIN TEMP:  26; 6HR MAX TEMP:  57;

HAYWARD        FAIR      52  37  56 S15G23    30.20F
6HR MIN TEMP:  38; 6HR MAX TEMP:  52;

SIREN          FAIR      54  38  55 S12G18    30.18F
CUMBERLAND     FAIR      52  36  54 SE15      30.20F
RICE LAKE      FAIR      52  38  59 SE15G21   30.23F
CHETEK         FAIR      52  40  64 E14G21    30.23F
LADYSMITH      FAIR      50  37  61 SE9G16    30.26F
EAU CLAIRE     NOT AVBL
MENOMONIE      FAIR      54  38  53 SE13      30.23F
NEW RICHMOND   FAIR      55  39  54 SE14G23   30.19F
OSCEOLA        CLOUDY    53  40  60 SE16G22   30.20F
$$

WIZ003>005-009-010-017-018-221900-
NORTH CENTRAL WISCONSIN

CITY           SKY/WX    TMP DP  RH WIND       PRES   REMARKS
MANITOWISH WTR SUNNY     49  31  48 S13G20    30.25F
ARBOR VITAE    SUNNY     52  32  46 S12       30.26F
WOODRUFF       SUNNY     52  32  46 S12       30.26F
RHINELANDER    SUNNY     50  29  44 S8        30.28F
EAGLE RIVER    MOSUNNY   49  26  40 S13       30.27F
LAND O LAKES   FAIR      51  31  47 S9        30.27F
PHILLIPS       FAIR      50  32  49 S12       30.25F
TOMAHAWK       SUNNY     50  32  49 CALM      30.29F
MEDFORD        FAIR      48  33  56 SE9       30.28F
MERRILL        FAIR      47  34  59 SE7       30.30F
$$

WIZ029-030-035-036-043>047-221900-
CENTRAL WISCONSIN

CITY           SKY/WX    TMP DP  RH WIND       PRES   REMARKS
WAUSAU         FAIR      52  31  44 SE10      30.29F
6HR MIN TEMP:  29; 6HR MAX TEMP:  52;

MOSINEE        SUNNY     50  36  57 SE9       30.31F
MARSHFIELD     FAIR      52  36  54 SE9       30.29F
6HR MIN TEMP:  29; 6HR MAX TEMP:  52;

STEVENS POINT  FAIR      49  35  58 SE6       30.32F
WAUPACA        MOSUNNY   53  39  58 S8        30.35F HAZE
WAUTOMA        NOT AVBL
WISC RAPIDS    FAIR      53  36  52 SE8G16    30.32F
6HR MIN TEMP:  27; 6HR MAX TEMP:  53;

CAMP DOUGLAS   NOT AVBL
$$

WIZ011>013-019>022-031-037>040-048>050-221900-
NORTHEAST WISCONSIN

CITY           SKY/WX    TMP DP  RH WIND       PRES   REMARKS
ANTIGO         MOSUNNY   47  33  59 SE13      30.32F
SHAWANO        SUNNY     53  37  55 SE7       30.36F
OCONTO         SUNNY     49  33  55 SE5       30.37F
STURGEON BAY   MOSUNNY   46  34  61 S3        30.37F
6HR MIN TEMP:  34; 6HR MAX TEMP:  46;

GREEN BAY      SUNNY     51  38  60 VRB5      30.35F
6HR MIN TEMP:  30; 6HR MAX TEMP:  51;

MANITOWOC      NOT AVBL
APPLETON       NOT AVBL
CLINTONVILLE   SUNNY     50  36  57 SE7       30.35F
OSHKOSH        SUNNY     52  39  61 SE6       30.34F
6HR MIN TEMP:  30; 6HR MAX TEMP:  53;

$$

WIZ032>034-041-042-053>061-221900-
SOUTHWEST WISCONSIN

CITY           SKY/WX    TMP DP  RH WIND       PRES   REMARKS
LA CROSSE      FAIR      55  37  50 S9        30.27F
6HR MIN TEMP:  35; 6HR MAX TEMP:  56;

SPARTA         FAIR      55  34  45 E6        30.29F
VIROQUA        FAIR      53  37  55 SE8       30.28F
BOSCOBEL       FAIR      57  39  51 S8        30.30F
6HR MIN TEMP:  33; 6HR MAX TEMP:  57;

PRAIRIE DU CHI FAIR      53  37  54 S8        30.29F
PLATTEVILLE    FAIR      54  40  59 S10       30.32F
$$

WIZ056-057-062-063-064-067-068-221900-
SOUTH CENTRAL WISCONSIN

CITY           SKY/WX    TMP DP  RH WIND       PRES   REMARKS
REEDSBURG      FAIR      51  39  64 S7        30.32F
BARABOO/DELLS  FAIR      53  38  56 S5        30.32F
LONE ROCK      NOT AVBL
MINERAL POINT  FAIR      55  39  54 SE3       30.31F
MADISON        FAIR      54  39  57 S7        30.33F
6HR MIN TEMP:  28; 6HR MAX TEMP:  54;

MIDDLETON      FAIR      55  37  50 S7        30.33F
WATERTOWN      MOSUNNY   53  39  59 SE8       30.34F
MONROE         FAIR      52  39  62 SE7       30.32F
JANESVILLE     SUNNY     57  37  47 S6        30.33F
$$

WIZ051-052-058>065-066-070>072-221900-
SOUTHEAST WISCONSIN

CITY           SKY/WX    TMP DP  RH WIND       PRES   REMARKS
MILWAUKEE      MOSUNNY   51  40  65 E8        30.35F
6HR MIN TEMP:  35; 6HR MAX TEMP:  52;

WAUKESHA       MOSUNNY   52  39  62 E7        30.35F
MILWAUKEE/TIMM PTSUNNY   52  37  58 SE6       30.36F
RACINE         MOSUNNY   51  39  63 SE9       30.37F
6HR MIN TEMP:  37; 6HR MAX TEMP:  52;

BURLINGTON     MOSUNNY   52  38  58 E3        30.34F
KENOSHA        MOSUNNY   53  40  61 E7        30.35F
6HR MIN TEMP:  30; 6HR MAX TEMP:  53;

FOND DU LAC    SUNNY     54  38  54 S7        30.34F
6HR MIN TEMP:  26; 6HR MAX TEMP:  54;

SHEBOYGAN      SUNNY     51  36  56 SW5       30.36F
6HR MIN TEMP:  28; 6HR MAX TEMP:  52;

WEST BEND      MOSUNNY   52  36  54 SE5       30.35F
JUNEAU         MOSUNNY   51  39  63 S6        30.35F
$$

LSZ147-162-221900-
LAKE SUPERIOR

STATION/POSITION TIME  TEMP    WIND        PRES    WAVE
                       AIR SEA DIR/SP/G            HT/PER
                 (UTC) (F)     (DEG/KT/KT) (MB)    (FT/S)
W MID LAKE BUOY  1650   45 46  150/ 10/ 12 1025.1F   2/ 4
DEVILS ISLAND    1700   48     170/ 11/ 13 1024.1F
PORT WING        1640   54     170/  8/ 12 1022.7F
SAXON HARBOR     1700   55     180/  3/ 11 1023.7F
$$

LMZ867-665-643>646-221900-
LAKE MICHIGAN

STATION/POSITION TIME  TEMP    WIND        PRES    WAVE
                       AIR SEA DIR/SP/G            HT/PER
                 (UTC) (F)     (DEG/KT/KT) (MB)    (FT/S)
CHAMBERS ISLAND  1700   46      70/  6/  8 1029.1S
N MID LAKE BUOY  1650   42 51  160/  6/  8 1030.1S   1
NORTHPORT PIER   1700   44     160/  7/ 10 1029.1F
SISTER BAY       1558          130/  8/ 10   N/A
KEWAUNEE LAKESHO 1700   46     120/  5/  6 1028.2F
SHEBOYGAN LAKESH 1700   47 49  160/  8/  9 1029.3F
PORT WASHINGTON  1740   50     130/  5/  7 1028.8F
ATWATER BUOY     1700   50     130/  6/  8 1029.5S
MILWAUKEE LAKESH 1700   49     110/  8/ 10   N/A
S MID LAKE BUOY  1650   46 54  110/  4/  6 1029.3F   1/ 5
KENOSHA   LAKESH 1700   52     140/  7/  9 1028.1F
$$

TC  - TEMPERATURE IN CELSIUS
VSB - VISIBILITY IN STATUTE MILES
WCI - WIND CHILL INDEX
HX  - HEAT INDEX




USA.gov is the U.S. government's official web portal to all federal, state and local government web resources and services.